Location: Ellingshausen
(50.5460°N, 10.4723°E)
Time: 07:25:36
(UTC+00:00)

Lacrosse 5 rocket - Pass Details

Date: 18 January 2026
Orbit: 400 x 481 km, 57.0° (Epoch: 18 February)

Event Time Altitude Azimuth Distance (km) Brightness Sun altitude
Exits shadow 05:25:00 25° 328° (NNW) 1,018 2.3 -16.3°
Maximum altitude 05:26:31 36° 14° (NNE) 792 2.1 -16.0°
Drops below altitude 10° 05:30:03 10° 83° (E) 1,679 4.9 -15.5°
Sets 05:32:20 0° 92° (E) 2,554 6.4 -15.1°
